INTELSAT 902 (IS-902)

Last updated on Sun Apr 12 2026 00:02:50 GMT+0000 (Coordinated Universal Time)

1 26900U 01039A 26101.36809639 -.00000277 00000+0 00000+0 0 9999 2 26900 5.9502 72.5827 0004477 305.8866 263.5304 1.00270744 90028
UTC large
Height (km)
Speed (km/s)
/
Latitude / Longitude
Inclination (degrees)
Orbital Period (minutes)
Azimuth
Elevation
Range (km)
Doppler Factor

Next 0 passes for location: London (51.5072 / 0.1276)

Sorry there are no passes over London.
INTELSAT 902 (IS-902)